ATLAS 5 CENTAUR R/B, 40978

Orbit data source: Space-Track

ATLAS 5 CENTAUR R/B, 40978 is space debris in LEO originally from an American launch on Thu, 08 Oct 2015 UTC via an ATLAS V 401 launch vehicle from the Air Force Western Test Range (AFWTR). Debris objects in space refer to the collection of defunct objects orbiting the Earth. Examples of debris include non-operational satellites, rocket bodies, and fragments generated from explosions, collisions, or faulty payload assembly.

Loading next visibility...
Identifier
40978, 2015-058Q
Orbit
LEO
Country
Flag of USUS
Related business
Manufacturer
USN PGS
Mission
Spacecraft
Bus & Motor
NPSCUL, Unknown motor
Mass
~2,065 kg wet, ~45 kg dry
Launch date (UTC)
2015-10-08 (11 years ago)
Launch vehicle
ATLAS V 401
Launch site
Air Force Western Test Range (AFWTR)
Object type
Payload
Rocket body
Debris
Shape & HBR
Unknown
Radar Cross Section
Large (>1 m²)

Expand to show TLE details & history
Last TLE update: 12 hours ago

TLE from 12 hours ago
0 ATLAS 5 CENTAUR R/B
1 40978U 15058Q   26110.29313286  .00004148  00000-0  26972-3 0  9997
2 40978  64.7679 323.7245 0107957  77.1004 284.2147 15.04748093106515
Epoch: 2026-04-20T07:02Z
TLE epoch observation values (Epoch: 2026-04-20T07:02:06.679Z)
Latitude
-0.00002°
Longitude
9.81131°
Altitude
536.686 km
Speed
7.604 km/s
True Right ascension
21h 34m 53s
True Declination
0° 00' 00"
Sunlit
Object was in daylight at epoch
Visualization orbit readout
Latitude
Unknown
Longitude
Unknown
Altitude
Unknown
Speed
Unknown
Apparent Right ascension
Unknown
Apparent Declination
Unknown
Sunlit
N/A
Visualization observer readout
Local Sidereal Time
01:38:38
Azimuth
Unknown
Elevation
Unknown
Doppler factor
Unknown
Orbital elements
Apogee altitude
625.641 km
Perigee altitude
476.035 km
Semi-major axis
6,928.975 km
Eccentricity
0.0108
Inclination
64.7679°
RAAN
323.7245°
Arg. of periapsis
77.1004°
True anomaly
283.01158°
Mean anomaly
284.2147°
Eccentric anomaly
283.61353°
Mean motion
3.76305 °/min
Orbital period
95.67 mins
BSTAR
0.00026972
Loading maneuver chart data...
Computing Atmospheric mass density...
Loading historical data...
Loading historical data...
Loading historical data...
Loading historical data...
Loading historical data...
Loading historical data...
Loading historical data...

Documentation

Showing up to 5 results
|